SA3PJN-WX Weather Reports


time (UTC)temp
C
wind
direction
speed
KPH
gust
KPH
rain 1hr
cm
rain 24hr
cm
rain mn
cm
humidity
%
barometer
mb
20260901095456 13 211 9.7 27.4 0.00 0.00 0.00 67 962.7
20260901094956 14 90 8.0 24.1 0.00 0.00 0.00 70 962.6
20260901094456 13 218 8.0 25.7 0.00 0.00 0.00 69 962.5
20260901093956 13 109 9.7 25.7 0.00 0.00 0.00 70 962.6
20260901093456 12 253 8.0 22.5 0.00 0.00 0.00 70 962.4
20260901092956 13 237 8.0 19.3 0.00 0.00 0.00 71 962.7
20260901092456 13 217 9.7 20.9 0.00 0.00 0.00 71 962.6
20260901091956 13 231 8.0 20.9 0.00 0.00 0.00 67 962.6
20260901091456 14 131 6.4 24.1 0.00 0.00 0.00 70 962.6
20260901090955 13 215 6.4 24.1 0.00 0.00 0.00 68 962.5
20260901090455 14 31 6.4 25.7 0.00 0.00 0.00 72 962.5
20260901085955 13 101 9.7 30.6 0.00 0.00 0.00 72 962.5
20260901085455 12 210 9.7 30.6 0.00 0.00 0.00 70 962.4
20260901084955 13 78 8.0 30.6 0.00 0.00 0.00 73 962.5
20260901084455 13 185 8.0 30.6 0.00 0.00 0.00 70 962.5
20260901083955 13 104 8.0 30.6 0.00 0.00 0.00 72 962.5
20260901083455 13 52 8.0 27.4 0.00 0.00 0.00 73 962.5
20260901082955 13 195 8.0 22.5 0.00 0.00 0.00 70 962.5
20260901082455 13 226 8.0 22.5 0.00 0.00 0.00 73 962.5
20260901081955 13 128 6.4 22.5 0.00 0.00 0.00 71 962.6
20260901081455 13 243 6.4 19.3 0.00 0.00 0.00 71 962.5
20260901080955 13 99 6.4 22.5 0.00 0.00 0.00 70 962.5
20260901080455 13 267 6.4 24.1 0.00 0.00 0.00 72 962.6
20260901075954 12 179 6.4 24.1 0.00 0.00 0.00 74 962.6
20260901075454 13 93 6.4 22.5 0.00 0.00 0.00 72 962.4
20260901074954 12 115 6.4 22.5 0.00 0.00 0.00 76 962.5
20260901074454 12 33 8.0 19.3 0.00 0.00 0.00 74 962.6
20260901073954 12 209 8.0 19.3 0.00 0.00 0.00 76 962.7
20260901073454 12 164 6.4 17.7 0.00 0.00 0.00 75 962.7
20260901072954 12 136 6.4 17.7 0.00 0.00 0.00 74 962.5
20260901072454 12 106 8.0 24.1 0.00 0.00 0.00 74 962.7
20260901071954 12 79 8.0 30.6 0.00 0.00 0.00 76 962.6
20260901071454 12 94 8.0 30.6 0.00 0.00 0.00 74 962.4
20260901070954 12 117 6.4 27.4 0.00 0.00 0.00 76 962.5
20260901070454 12 100 6.4 24.1 0.00 0.00 0.00 77 962.4
20260901065954 12 137 6.4 29.0 0.00 0.00 0.00 78 962.6
20260901065454 12 200 6.4 29.0 0.00 0.00 0.00 77 962.4
20260901064954 12 207 6.4 29.0 0.00 0.00 0.00 77 962.3
20260901064454 12 161 6.4 24.1 0.00 0.00 0.00 79 962.2
20260901063954 11 149 8.0 29.0 0.00 0.00 0.00 80 962.2
20260901063453 11 268 8.0 29.0 0.00 0.00 0.00 78 962.1
20260901062953 11 89 8.0 27.4 0.00 0.00 0.00 78 962.1
20260901062453 11 259 6.4 27.4 0.00 0.00 0.00 80 962.1
20260901061953 11 118 6.4 24.1 0.00 0.00 0.00 81 962.1
20260901061453 11 71 6.4 20.9 0.00 0.00 0.00 81 962.1
20260901060953 11 166 6.4 20.9 0.00 0.00 0.00 82 962.1
20260901060453 11 100 6.4 20.9 0.00 0.00 0.00 84 962.1
20260901055953 11 102 6.4 20.9 0.00 0.00 0.00 84 962.2
20260901055453 11 222 6.4 25.7 0.00 0.00 0.00 85 962.1
20260901054953 11 167 8.0 25.7 0.00 0.00 0.00 85 962.1
20260901054453 10 130 8.0 24.1 0.00 0.00 0.00 87 962.1
20260901053953 10 87 6.4 24.1 0.00 0.00 0.00 88 962.1
20260901053453 10 242 6.4 24.1 0.00 0.00 0.00 88 962.0
20260901052953 10 190 6.4 24.1 0.00 0.00 0.00 90 962.0
20260901052453 10 165 6.4 25.7 0.00 0.00 0.00 90 962.0
20260901051952 10 107 6.4 25.7 0.00 0.00 0.00 90 962.0
20260901051452 10 142 6.4 19.3 0.00 0.00 0.00 90 962.1
20260901050952 10 94 4.8 19.3 0.00 0.00 0.00 90 962.1
20260901050452 10 153 4.8 14.5 0.00 0.00 0.00 91 962.3
20260901045952 10 107 4.8 16.1 0.00 0.00 0.00 92 962.2
20260901045452 9 133 4.8 16.1 0.00 0.00 0.00 94 962.2
20260901044952 8 305 4.8 16.1 0.00 0.00 0.00 96 962.4
20260901044452 8 139 4.8 16.1 0.00 0.00 0.00 97 962.3
20260901043952 7 76 4.8 17.7 0.00 0.00 0.00 98 962.2
20260901043452 7 117 4.8 19.3 0.00 0.00 0.00 99 962.1
20260901042952 6 91 4.8 19.3 0.00 0.00 0.00 10 962.1
20260901042452 6 37 4.8 17.7 0.00 0.00 0.00 10 962.0
20260901041952 6 111 4.8 17.7 0.00 0.00 0.00 10 962.1
20260901041452 6 106 4.8 17.7 0.00 0.00 0.00 10 962.1
20260901040952 6 94 4.8 12.9 0.00 0.00 0.00 10 962.1
20260901040452 6 113 4.8 11.3 0.00 0.00 0.00 10 962.0
20260901035951 6 84 4.8 19.3 0.00 0.00 0.00 10 962.1
20260901035451 6 91 4.8 19.3 0.00 0.00 0.00 10 962.1
20260901034951 6 136 4.8 14.5 0.00 0.00 0.00 10 962.0
20260901034451 6 111 3.2 12.9 0.00 0.00 0.00 10 962.0
20260901033951 6 101 3.2 11.3 0.00 0.00 0.00 10 962.1
20260901033451 6 64 3.2 11.3 0.00 0.00 0.00 10 962.0
20260901032951 6 97 3.2 14.5 0.00 0.00 0.00 10 961.9
20260901032451 6 104 3.2 14.5 0.00 0.00 0.00 10 961.9
20260901031951 6 97 3.2 14.5 0.00 0.00 0.00 10 961.9
20260901031451 6 128 3.2 14.5 0.00 0.00 0.00 10 961.8
20260901030951 6 99 3.2 14.5 0.00 0.00 0.00 10 961.8
20260901030451 6 32 3.2 16.1 0.00 0.00 0.00 10 961.8
20260901025951 6 105 3.2 16.1 0.00 0.00 0.00 10 961.8
20260901025451 6 182 3.2 16.1 0.00 0.00 0.00 10 961.8
20260901024951 6 59 3.2 12.9 0.00 0.00 0.00 10 961.7
20260901024451 6 133 3.2 11.3 0.00 0.00 0.00 10 961.8
20260901023951 6 101 3.2 12.9 0.00 0.00 0.00 10 961.8
20260901023451 6 152 3.2 12.9 0.00 0.00 0.00 10 961.7
20260901022950 6 150 3.2 14.5 0.00 0.00 0.00 10 961.7
20260901022450 6 19 3.2 14.5 0.00 0.00 0.00 10 961.6
20260901021950 6 80 4.8 14.5 0.00 0.00 0.00 10 961.6
20260901021450 6 123 4.8 17.7 0.00 0.00 0.00 10 961.6
20260901020950 6 89 4.8 19.3 0.00 0.00 0.00 10 961.6
20260901020450 6 147 4.8 19.3 0.00 0.00 0.00 10 961.5
20260901015950 6 89 4.8 16.1 0.00 0.00 0.00 10 961.4
20260901015450 6 142 4.8 16.1 0.00 0.00 0.00 10 961.4
20260901014950 6 142 4.8 12.9 0.00 0.00 0.00 10 961.3
20260901014450 6 114 4.8 17.7 0.00 0.00 0.00 10 961.3
20260901013950 6 129 4.8 17.7 0.00 0.00 0.00 10 961.3
20260901013450 6 128 4.8 17.7 0.00 0.00 0.00 10 961.3
20260901012949 6 98 4.8 17.7 0.00 0.00 0.00 10 961.3
20260901012449 6 138 6.4 24.1 0.00 0.00 0.00 10 961.2
20260901011949 6 43 6.4 24.1 0.00 0.00 0.00 10 961.3
20260901011449 6 162 6.4 22.5 0.00 0.00 0.00 10 961.2
20260901010949 7 228 8.0 22.5 0.00 0.00 0.00 99 961.3
20260901010449 7 64 6.4 20.9 0.00 0.00 0.00 99 961.2
20260901005949 7 130 6.4 20.9 0.00 0.00 0.00 10 961.3
20260901005449 7 91 6.4 20.9 0.00 0.00 0.00 99 961.3
20260901004949 7 102 6.4 20.9 0.00 0.00 0.00 99 961.3
20260901004449 7 0 8.0 22.5 0.00 0.00 0.00 99 961.3
20260901003949 7 107 8.0 25.7 0.00 0.00 0.00 99 961.3
20260901003449 7 134 6.4 25.7 0.00 0.00 0.00 99 961.3
20260901002949 7 106 6.4 25.7 0.00 0.00 0.00 99 961.4
20260901002449 7 105 6.4 19.3 0.00 0.00 0.00 99 961.4
20260901001949 7 128 6.4 22.5 0.00 0.00 0.00 99 961.4
20260901001448 7 89 6.4 22.5 0.00 0.00 0.00 99 961.4
20260901000948 7 173 8.0 17.7 0.00 0.00 0.00 99 961.3
20260901000450 7 147 6.4 17.7 0.00 0.00 0.00 99 961.4
20260831235948 7 144 6.4 20.9 0.00 0.00 0.00 99 961.3
20260831235448 7 161 6.4 20.9 0.00 0.00 0.00 99 961.2
20260831234948 7 155 6.4 24.1 0.00 0.00 0.00 99 961.4
20260831234448 7 123 6.4 25.7 0.00 0.00 0.00 99 961.3
20260831233948 7 176 8.0 25.7 0.00 0.00 0.00 99 961.2
20260831233448 7 67 8.0 17.7 0.00 0.00 0.00 99 961.2
20260831232948 7 59 6.4 20.9 0.00 0.00 0.00 10 961.2
20260831232448 7 92 6.4 20.9 0.00 0.00 0.00 10 961.3
20260831231948 7 63 6.4 17.7 0.00 0.00 0.00 10 961.2
20260831231448 7 210 6.4 17.7 0.00 0.00 0.00 10 961.3
20260831230947 7 107 6.4 19.3 0.00 0.00 0.00 10 961.2
20260831230447 7 63 6.4 19.3 0.00 0.00 0.00 99 961.2
20260831225947 7 122 6.4 22.5 0.00 0.00 0.00 99 961.2
20260831225447 7 120 6.4 22.5 0.00 0.00 0.00 99 961.3
20260831224947 7 166 6.4 24.1 0.00 0.00 0.00 99 961.2
20260831224447 7 160 6.4 24.1 0.00 0.00 0.00 99 961.2
20260831223947 7 70 6.4 24.1 0.00 0.00 0.00 99 961.1
20260831223447 7 73 6.4 20.9 0.00 0.00 0.00 10 961.1
20260831222947 7 117 6.4 20.9 0.00 0.00 0.00 10 961.0
20260831222447 7 110 6.4 20.9 0.00 0.00 0.00 10 961.0
20260831221947 7 148 6.4 20.9 0.00 0.00 0.00 10 961.1
20260831221447 7 11 4.8 20.9 0.00 0.00 0.00 10 961.0
20260831220947 8 198 6.4 20.9 0.00 0.00 0.00 99 961.0
20260831220447 8 136 6.4 19.3 0.00 0.00 0.00 99 961.1
20260831215946 8 167 6.4 19.3 0.00 0.00 0.00 99 961.0
20260831215446 8 119 6.4 14.5 0.00 0.00 0.00 99 961.0
20260831214946 8 130 6.4 14.5 0.00 0.00 0.00 99 961.0
20260831214446 8 146 4.8 14.5 0.00 0.00 0.00 99 961.0
20260831213946 8 79 4.8 16.1 0.00 0.00 0.00 99 960.9
20260831213446 8 67 4.8 16.1 0.00 0.00 0.00 99 961.1
20260831212946 8 167 4.8 16.1 0.00 0.00 0.00 99 961.1
20260831212446 8 155 4.8 16.1 0.00 0.00 0.00 10 961.0
20260831211946 8 86 4.8 17.7 0.00 0.00 0.00 10 961.2
20260831211446 8 98 4.8 17.7 0.00 0.00 0.00 10 961.0
20260831210946 8 91 4.8 14.5 0.00 0.00 0.00 99 960.9
20260831210446 8 142 4.8 14.5 0.00 0.00 0.00 10 961.1
20260831205946 8 117 3.2 14.5 0.00 0.00 0.00 10 961.1
20260831205446 8 144 3.2 14.5 0.00 0.00 0.00 10 961.0
20260831204946 8 108 3.2 17.7 0.00 0.00 0.00 10 961.0
20260831204446 8 172 3.2 17.7 0.00 0.00 0.00 10 961.0
20260831203945 8 125 3.2 17.7 0.00 0.00 0.00 10 961.0
20260831203445 8 99 3.2 12.9 0.00 0.00 0.00 10 961.0
20260831202945 8 122 3.2 17.7 0.00 0.00 0.00 10 960.9
20260831202445 8 107 4.8 22.5 0.00 0.00 0.00 10 960.9
20260831201945 8 140 4.8 22.5 0.00 0.00 0.00 10 960.8
20260831201445 8 188 4.8 14.5 0.00 0.00 0.00 10 961.0
20260831200945 8 177 3.2 14.5 0.00 0.00 0.00 10 961.0
20260831200445 8 64 4.8 12.9 0.00 0.00 0.00 10 961.0
20260831195945 8 254 6.4 17.7 0.00 0.00 0.00 10 960.9
20260831195445 8 215 6.4 17.7 0.00 0.00 0.00 10 961.0
20260831194945 9 189 6.4 17.7 0.00 0.00 0.00 10 960.9
20260831194445 9 234 6.4 14.5 0.00 0.00 0.00 10 960.7
20260831193945 9 223 6.4 14.5 0.00 0.00 0.00 10 960.8
20260831193445 9 247 6.4 14.5 0.00 0.00 0.00 10 960.8
20260831192944 9 225 6.4 14.5 0.00 0.00 0.00 10 960.8
20260831192444 9 231 4.8 17.7 0.00 0.00 0.00 10 960.8
20260831191944 9 240 4.8 17.7 0.00 0.00 0.00 10 960.7
20260831191444 9 99 4.8 11.3 0.00 0.00 0.00 10 960.7
20260831190944 9 233 6.4 14.5 0.00 0.00 0.00 10 960.7
20260831190444 10 223 8.0 14.5 0.00 0.00 0.00 10 960.7
20260831185944 10 237 8.0 19.3 0.00 0.00 0.00 10 960.8
20260831185444 10 208 8.0 19.3 0.00 0.00 0.00 10 960.5
20260831184944 10 213 6.4 17.7 0.00 0.00 0.00 10 960.5
20260831184444 10 122 6.4 24.1 0.00 0.00 0.00 10 960.5
20260831183944 10 115 4.8 24.1 0.00 0.00 0.00 10 960.5
20260831183444 10 79 4.8 14.5 0.00 0.00 0.00 10 960.5
20260831182944 10 234 4.8 16.1 0.00 0.00 0.00 10 960.5
20260831182444 10 191 6.4 19.3 0.00 0.00 0.00 10 960.3
20260831181943 10 145 8.0 27.4 0.00 0.00 0.00 10 960.2
20260831181443 10 283 8.0 27.4 0.00 0.00 0.00 10 960.3
20260831180943 11 237 8.0 27.4 0.00 0.00 0.00 99 960.1
20260831180443 11 228 8.0 27.4 0.00 0.00 0.00 99 960.1
20260831175913 11 244 6.4 25.7 0.00 0.00 0.00 10 959.9
20260831175413 11 153 6.4 20.9 0.00 0.00 0.00 10 959.8
20260831174913 11 135 6.4 20.9 0.00 0.00 0.00 10 959.9
20260831174413 11 178 6.4 17.7 0.00 0.00 0.00 99 959.9
20260831173913 11 121 6.4 17.7 0.00 0.00 0.00 10 959.9
20260831173413 11 83 6.4 17.7 0.00 0.00 0.00 10 959.9
20260831172913 11 271 6.4 27.4 0.00 0.00 0.00 10 959.8
20260831172413 11 114 6.4 27.4 0.00 0.00 0.00 10 959.8
20260831171913 11 106 8.0 22.5 0.00 0.00 0.00 10 959.8
20260831171413 11 127 8.0 22.5 0.00 0.00 0.00 10 959.8
20260831170913 11 233 6.4 20.9 0.00 0.00 0.00 10 959.8
20260831170413 11 246 6.4 20.9 0.00 0.00 0.00 10 959.7
20260831165913 11 77 6.4 17.7 0.00 0.00 0.00 10 959.4
20260831165413 11 89 8.0 19.3 0.00 0.00 0.00 10 959.6
20260831164912 11 172 6.4 19.3 0.00 0.00 0.00 10 959.4
20260831164412 11 251 4.8 17.7 0.00 0.00 0.00 10 959.5
20260831163912 11 119 6.4 19.3 0.00 0.00 0.00 10 959.3
20260831163412 11 153 6.4 19.3 0.00 0.00 0.00 10 959.5
20260831162912 11 169 6.4 22.5 0.00 0.00 0.00 10 959.4
20260831162412 11 124 8.0 22.5 0.00 0.00 0.00 10 959.4
20260831161912 11 89 8.0 22.5 0.00 0.00 0.00 10 959.4
20260831161412 12 144 6.4 22.5 0.00 0.00 0.00 10 959.4
20260831160912 12 224 6.4 22.5 0.00 0.00 0.00 10 959.1
20260831160412 12 156 6.4 22.5 0.00 0.00 0.00 10 959.1
20260831155912 12 45 6.4 24.1 0.00 0.00 0.00 10 959.1
20260831155412 12 174 6.4 24.1 0.00 0.00 0.00 10 959.1
20260831154912 12 180 6.4 25.7 0.00 0.00 0.00 10 959.1
20260831154412 12 188 6.4 25.7 0.00 0.00 0.00 10 959.3
20260831153912 12 43 6.4 20.9 0.00 0.00 0.00 10 959.2
20260831153412 12 111 6.4 16.1 0.00 0.00 0.00 10 959.3
20260831152912 12 188 6.4 17.7 0.00 0.00 0.00 10 959.2
20260831152411 12 175 6.4 19.3 0.00 0.00 0.00 10 959.2
20260831151912 12 97 6.4 19.3 0.00 0.00 0.00 10 959.2
20260831151411 12 131 6.4 22.5 0.00 0.00 0.00 10 959.2
20260831150911 12 135 4.8 22.5 0.00 0.00 0.00 10 959.2
20260831150411 12 125 4.8 19.3 0.00 0.00 0.00 10 959.2
20260831145911 13 119 4.8 22.5 0.00 0.00 0.00 10 959.2
20260831145411 12 121 6.4 22.5 0.00 0.00 0.00 10 959.2
20260831144911 13 179 6.4 17.7 0.00 0.00 0.00 10 959.1
20260831144411 13 169 4.8 17.7 0.00 0.00 0.00 10 959.0
20260831143911 13 126 6.4 17.7 0.00 0.00 0.00 10 959.1
20260831143411 13 68 6.4 17.7 0.00 0.00 0.00 10 959.1
20260831142911 13 245 6.4 19.3 0.00 0.00 0.00 10 959.1
20260831142410 13 92 6.4 19.3 0.00 0.00 0.00 10 959.0
20260831141910 13 203 6.4 19.3 0.00 0.00 0.00 10 959.0
20260831141410 13 224 4.8 17.7 0.00 0.00 0.00 10 958.9
20260831140910 13 120 4.8 17.7 0.00 0.00 0.00 10 959.0
20260831140410 12 60 4.8 19.3 0.00 0.00 0.00 10 958.9
20260831135910 12 67 4.8 19.3 0.00 0.00 0.00 10 959.0
20260831135410 12 141 6.4 16.1 0.00 0.00 0.00 10 958.7
20260831134910 12 255 6.4 19.3 0.00 0.00 0.00 10 958.7
20260831134410 12 264 6.4 20.9 0.00 0.00 0.00 10 958.7
20260831133910 12 146 6.4 20.9 0.00 0.00 0.00 10 958.8
20260831133410 12 225 6.4 25.7 0.00 0.00 0.00 10 958.9
20260831132910 12 56 8.0 25.7 0.00 0.00 0.00 10 958.8
20260831132409 12 209 8.0 25.7 0.00 0.00 0.00 10 958.8
20260831131909 12 135 6.4 17.7 0.00 0.00 0.00 10 958.8
20260831131409 12 169 6.4 16.1 0.00 0.00 0.00 10 958.8
20260831130909 12 289 4.8 17.7 0.00 0.00 0.00 10 958.8
20260831130409 12 107 6.4 20.9 0.00 0.00 0.00 10 958.7
20260831125909 12 121 8.0 25.7 0.00 0.00 0.00 10 958.6
20260831125409 12 99 8.0 25.7 0.00 0.00 0.00 10 958.6
20260831124909 12 196 6.4 17.7 0.00 0.00 0.00 10 958.6
20260831124409 12 164 6.4 19.3 0.00 0.00 0.00 10 958.6
20260831123909 12 155 6.4 19.3 0.00 0.00 0.00 10 958.5
20260831123409 12 77 6.4 22.5 0.00 0.00 0.00 10 958.4
20260831122909 12 161 6.4 22.5 0.00 0.00 0.00 10 958.6
20260831122409 12 206 6.4 24.1 0.00 0.00 0.00 10 958.5
20260831121909 12 102 6.4 24.1 0.00 0.00 0.00 10 958.6
20260831121409 12 210 6.4 17.7 0.00 0.00 0.00 10 958.6
20260831120909 12 218 6.4 14.5 0.00 0.00 0.00 10 958.5
20260831120409 12 303 6.4 16.1 0.00 0.00 0.00 10 958.4
20260831115909 12 250 8.0 17.7 0.00 0.00 0.00 10 958.5
20260831115339 12 231 8.0 20.9 0.00 0.00 0.00 10 958.4
20260831114838 12 232 8.0 20.9 0.00 0.00 0.00 10 958.2
20260831114338 12 201 8.0 20.9 0.00 0.00 0.00 10 958.1
20260831113838 12 230 6.4 19.3 0.00 0.00 0.00 10 958.2
20260831113338 12 208 8.0 19.3 0.00 0.00 0.00 10 958.1
20260831112838 12 266 8.0 22.5 0.00 0.00 0.00 10 958.1
20260831112338 12 242 8.0 22.5 0.00 0.00 0.00 10 958.2
20260831111838 12 223 6.4 22.5 0.00 0.00 0.00 10 958.1
20260831111338 12 220 6.4 20.9 0.00 0.00 0.00 10 958.0
20260831110838 12 232 6.4 22.5 0.00 0.00 0.00 10 958.1
20260831110338 12 144 6.4 22.5 0.00 0.00 0.00 10 958.1
20260831105838 12 249 6.4 19.3 0.00 0.00 0.00 10 958.0
20260831105338 12 224 6.4 19.3 0.00 0.00 0.00 10 958.0
20260831104838 11 236 4.8 14.5 0.00 0.00 0.00 10 958.0
20260831104338 11 79 4.8 14.5 0.00 0.00 0.00 10 958.0
20260831103838 11 207 6.4 17.7 0.00 0.00 0.00 10 957.9
20260831103337 11 278 6.4 17.7 0.00 0.00 0.00 10 958.0
20260831102837 11 260 6.4 16.1 0.00 0.00 0.00 10 957.8
20260831102337 11 258 8.0 20.9 0.00 0.00 0.00 10 957.7
20260831101837 11 257 9.7 22.5 0.00 0.00 0.00 10 957.7
20260831101337 11 227 8.0 22.5 0.00 0.00 0.00 10 957.8
20260831100837 11 222 4.8 16.1 0.00 0.00 0.00 10 958.1
20260831100337 11 135 4.8 14.5 0.00 0.00 0.00 10 958.1
20260831095837 11 46 4.8 12.9 0.00 0.00 0.00 10 958.0